Year,Month,Day,Hour,Minute,Value (Times are PST for temperature in C)
2011,05,29,00,00,9.70
2011,05,29,00,01,9.70
2011,05,29,00,02,9.60
2011,05,29,00,03,9.60
2011,05,29,00,04,9.60
2011,05,29,00,05,9.60
2011,05,29,00,06,9.60
2011,05,29,00,07,9.60
2011,05,29,00,08,9.60
2011,05,29,00,09,9.50
2011,05,29,00,10,9.50
2011,05,29,00,11,9.50
2011,05,29,00,12,9.50
2011,05,29,00,13,9.50
2011,05,29,00,14,9.50
2011,05,29,00,15,9.50
2011,05,29,00,16,9.50
2011,05,29,00,17,9.50
2011,05,29,00,18,9.50
2011,05,29,00,19,9.40
2011,05,29,00,20,9.40
2011,05,29,00,21,9.40
2011,05,29,00,22,9.40
2011,05,29,00,23,9.40
2011,05,29,00,24,9.40
2011,05,29,00,25,9.40
2011,05,29,00,26,9.40
2011,05,29,00,27,9.50
2011,05,29,00,28,9.50
2011,05,29,00,29,9.50
2011,05,29,00,30,9.50
2011,05,29,00,31,9.50
2011,05,29,00,32,9.50
2011,05,29,00,33,9.60
2011,05,29,00,34,9.50
2011,05,29,00,35,9.60
2011,05,29,00,36,9.50
2011,05,29,00,37,9.50
2011,05,29,00,38,9.50
2011,05,29,00,39,9.50
2011,05,29,00,40,9.50
2011,05,29,00,41,9.50
2011,05,29,00,42,9.50
2011,05,29,00,43,9.40
2011,05,29,00,44,9.40
2011,05,29,00,45,9.40
2011,05,29,00,46,9.40
2011,05,29,00,47,9.40
2011,05,29,00,48,9.40
2011,05,29,00,49,9.40
2011,05,29,00,50,9.40
2011,05,29,00,51,9.40
2011,05,29,00,52,9.40
2011,05,29,00,53,9.40
2011,05,29,00,54,9.30
2011,05,29,00,55,9.30
2011,05,29,00,56,9.40
2011,05,29,00,57,9.40
2011,05,29,00,58,9.40
2011,05,29,00,59,9.40
2011,05,29,01,00,9.40
2011,05,29,01,01,9.40
2011,05,29,01,02,9.40
2011,05,29,01,03,9.40
2011,05,29,01,04,9.40
2011,05,29,01,05,9.40
2011,05,29,01,06,9.40
2011,05,29,01,07,9.40
2011,05,29,01,08,9.40
2011,05,29,01,09,9.40
2011,05,29,01,10,9.40
2011,05,29,01,11,9.40
2011,05,29,01,12,9.40
2011,05,29,01,13,9.40
2011,05,29,01,14,9.40
2011,05,29,01,15,9.40
2011,05,29,01,16,9.40
2011,05,29,01,17,9.40
2011,05,29,01,18,9.50
2011,05,29,01,19,9.50
2011,05,29,01,20,9.50
2011,05,29,01,21,9.50
2011,05,29,01,22,9.50
2011,05,29,01,23,9.50
2011,05,29,01,24,9.60
2011,05,29,01,25,9.60
2011,05,29,01,26,9.60
2011,05,29,01,27,9.60
2011,05,29,01,28,9.60
2011,05,29,01,29,9.60
2011,05,29,01,30,9.60
2011,05,29,01,31,9.60
2011,05,29,01,32,9.60
2011,05,29,01,33,9.60
2011,05,29,01,34,9.60
2011,05,29,01,35,9.60
2011,05,29,01,36,9.60
2011,05,29,01,37,9.70
2011,05,29,01,38,9.60
2011,05,29,01,39,9.70
2011,05,29,01,40,9.60
2011,05,29,01,41,9.60
2011,05,29,01,42,9.60
2011,05,29,01,43,9.60
2011,05,29,01,44,9.60
2011,05,29,01,45,9.60
2011,05,29,01,46,9.60
2011,05,29,01,47,9.60
2011,05,29,01,48,9.60
2011,05,29,01,49,9.60
2011,05,29,01,50,9.60
2011,05,29,01,51,9.60
2011,05,29,01,52,9.50
2011,05,29,01,53,9.50
2011,05,29,01,54,9.50
2011,05,29,01,55,9.50
2011,05,29,01,56,9.50
2011,05,29,01,57,9.40
2011,05,29,01,58,9.50
2011,05,29,01,59,9.40
2011,05,29,02,00,9.40
2011,05,29,02,01,9.40
2011,05,29,02,02,9.40
2011,05,29,02,03,9.40
2011,05,29,02,04,9.40
2011,05,29,02,05,9.40
2011,05,29,02,06,9.40
2011,05,29,02,07,9.40
2011,05,29,02,08,9.40
2011,05,29,02,09,9.40
2011,05,29,02,10,9.40
2011,05,29,02,11,9.40
2011,05,29,02,12,9.40
2011,05,29,02,13,9.40
2011,05,29,02,14,9.30
2011,05,29,02,15,9.30
2011,05,29,02,16,9.30
2011,05,29,02,17,9.30
2011,05,29,02,18,9.30
2011,05,29,02,19,9.30
2011,05,29,02,20,9.30
2011,05,29,02,21,9.30
2011,05,29,02,22,9.30
2011,05,29,02,23,9.30
2011,05,29,02,24,9.30
2011,05,29,02,25,9.30
2011,05,29,02,26,9.30
2011,05,29,02,27,9.30
2011,05,29,02,28,9.30
2011,05,29,02,29,9.30
2011,05,29,02,30,9.30
2011,05,29,02,31,9.30
2011,05,29,02,32,9.30
2011,05,29,02,33,9.30
2011,05,29,02,34,9.20
2011,05,29,02,35,9.20
2011,05,29,02,36,9.20
2011,05,29,02,37,9.20
2011,05,29,02,38,9.20
2011,05,29,02,39,9.20
2011,05,29,02,40,9.20
2011,05,29,02,41,9.20
2011,05,29,02,42,9.20
2011,05,29,02,43,9.10
2011,05,29,02,44,9.10
2011,05,29,02,45,9.10
2011,05,29,02,46,9.10
2011,05,29,02,47,9.00
2011,05,29,02,48,9.00
2011,05,29,02,49,9.00
2011,05,29,02,50,9.00
2011,05,29,02,51,8.90
2011,05,29,02,52,8.90
2011,05,29,02,53,8.90
2011,05,29,02,54,8.90
2011,05,29,02,55,8.90
2011,05,29,02,56,8.90
2011,05,29,02,57,8.90
2011,05,29,02,58,8.90
2011,05,29,02,59,8.90
2011,05,29,03,00,8.90
2011,05,29,03,01,8.80
2011,05,29,03,02,8.80
2011,05,29,03,03,8.80
2011,05,29,03,04,8.80
2011,05,29,03,05,8.80
2011,05,29,03,06,8.80
2011,05,29,03,07,8.80
2011,05,29,03,08,8.80
2011,05,29,03,09,8.80
2011,05,29,03,10,8.80
2011,05,29,03,11,8.80
2011,05,29,03,12,8.80
2011,05,29,03,13,8.80
2011,05,29,03,14,8.80
2011,05,29,03,15,8.80
2011,05,29,03,16,8.80
2011,05,29,03,17,8.80
2011,05,29,03,18,8.80
2011,05,29,03,19,8.80
2011,05,29,03,20,8.80
2011,05,29,03,21,8.80
2011,05,29,03,22,8.80
2011,05,29,03,23,8.80
2011,05,29,03,24,8.70
2011,05,29,03,25,8.70
2011,05,29,03,26,8.70
2011,05,29,03,27,8.60
2011,05,29,03,28,8.50
2011,05,29,03,29,8.50
2011,05,29,03,30,8.40
2011,05,29,03,31,8.40
2011,05,29,03,32,8.40
2011,05,29,03,33,8.30
2011,05,29,03,34,8.30
2011,05,29,03,35,8.30
2011,05,29,03,36,8.30
2011,05,29,03,37,8.20
2011,05,29,03,38,8.30
2011,05,29,03,39,8.30
2011,05,29,03,40,8.30
2011,05,29,03,41,8.30
2011,05,29,03,42,8.30
2011,05,29,03,43,8.40
2011,05,29,03,44,8.40
2011,05,29,03,45,8.40
2011,05,29,03,46,8.40
2011,05,29,03,47,8.40
2011,05,29,03,48,8.40
2011,05,29,03,49,8.40
2011,05,29,03,50,8.40
2011,05,29,03,51,8.50
2011,05,29,03,52,8.40
2011,05,29,03,53,8.40
2011,05,29,03,54,8.40
2011,05,29,03,55,8.40
2011,05,29,03,56,8.40
2011,05,29,03,57,8.40
2011,05,29,03,58,8.40
2011,05,29,03,59,8.40
2011,05,29,04,00,8.40
2011,05,29,04,01,8.30
2011,05,29,04,02,8.30
2011,05,29,04,03,8.30
2011,05,29,04,04,8.30
2011,05,29,04,05,8.20
2011,05,29,04,06,8.20
2011,05,29,04,07,8.10
2011,05,29,04,08,8.10
2011,05,29,04,09,8.00
2011,05,29,04,10,7.90
2011,05,29,04,11,7.90
2011,05,29,04,12,7.90
2011,05,29,04,13,7.80
2011,05,29,04,14,7.80
2011,05,29,04,15,7.80
2011,05,29,04,16,7.80
2011,05,29,04,17,7.80
2011,05,29,04,18,7.80
2011,05,29,04,19,7.70
2011,05,29,04,20,7.70
2011,05,29,04,21,7.70
2011,05,29,04,22,7.70
2011,05,29,04,23,7.60
2011,05,29,04,24,7.60
2011,05,29,04,25,7.60
2011,05,29,04,26,7.50
2011,05,29,04,27,7.50
2011,05,29,04,28,7.50
2011,05,29,04,29,7.40
2011,05,29,04,30,7.40
2011,05,29,04,31,7.40
2011,05,29,04,32,7.40
2011,05,29,04,33,7.40
2011,05,29,04,34,7.40
2011,05,29,04,35,7.40
2011,05,29,04,36,7.40
2011,05,29,04,37,7.40
2011,05,29,04,38,7.40
2011,05,29,04,39,7.40
2011,05,29,04,40,7.40
2011,05,29,04,41,7.40
2011,05,29,04,42,7.40
2011,05,29,04,43,7.40
2011,05,29,04,44,7.40
2011,05,29,04,45,7.40
2011,05,29,04,46,7.50
2011,05,29,04,47,7.50
2011,05,29,04,48,7.50
2011,05,29,04,49,7.50
2011,05,29,04,50,7.50
2011,05,29,04,51,7.60
2011,05,29,04,52,7.60
2011,05,29,04,53,7.60
2011,05,29,04,54,7.60
2011,05,29,04,55,7.60
2011,05,29,04,56,7.60
2011,05,29,04,57,7.60
2011,05,29,04,58,7.50
2011,05,29,04,59,7.60
2011,05,29,05,00,7.60
2011,05,29,05,01,7.50
2011,05,29,05,02,7.50
2011,05,29,05,03,7.50
2011,05,29,05,04,7.50
2011,05,29,05,05,7.50
2011,05,29,05,06,7.50
2011,05,29,05,07,7.40
2011,05,29,05,08,7.40
2011,05,29,05,09,7.40
2011,05,29,05,10,7.40
2011,05,29,05,11,7.40
2011,05,29,05,12,7.40
2011,05,29,05,13,7.30
2011,05,29,05,14,7.30
2011,05,29,05,15,7.30
2011,05,29,05,16,7.30
2011,05,29,05,17,7.20
2011,05,29,05,18,7.20
2011,05,29,05,19,7.20
2011,05,29,05,20,7.20
2011,05,29,05,21,7.20
2011,05,29,05,22,7.10
2011,05,29,05,23,7.10
2011,05,29,05,24,7.10
2011,05,29,05,25,7.10
2011,05,29,05,26,7.10
2011,05,29,05,27,7.00
2011,05,29,05,28,7.00
2011,05,29,05,29,7.00
2011,05,29,05,30,6.90
2011,05,29,05,31,6.90
2011,05,29,05,32,6.90
2011,05,29,05,33,6.90
2011,05,29,05,34,6.80
2011,05,29,05,35,6.80
2011,05,29,05,36,6.80
2011,05,29,05,37,6.70
2011,05,29,05,38,6.70
2011,05,29,05,39,6.70
2011,05,29,05,40,6.70
2011,05,29,05,41,6.70
2011,05,29,05,42,6.60
2011,05,29,05,43,6.60
2011,05,29,05,44,6.60
2011,05,29,05,45,6.60
2011,05,29,05,46,6.60
2011,05,29,05,47,6.60
2011,05,29,05,48,6.60
2011,05,29,05,49,6.60
2011,05,29,05,50,6.60
2011,05,29,05,51,6.60
2011,05,29,05,52,6.60
2011,05,29,05,53,6.50
2011,05,29,05,54,6.50
2011,05,29,05,55,6.50
2011,05,29,05,56,6.50
2011,05,29,05,57,6.50
2011,05,29,05,58,6.50
2011,05,29,05,59,6.50
2011,05,29,06,00,6.50
2011,05,29,06,01,6.50
2011,05,29,06,02,6.50
2011,05,29,06,03,6.50
2011,05,29,06,04,6.50
2011,05,29,06,05,6.50
2011,05,29,06,06,6.50
2011,05,29,06,07,6.50
2011,05,29,06,08,6.50
2011,05,29,06,09,6.50
2011,05,29,06,10,6.50
2011,05,29,06,11,6.50
2011,05,29,06,12,6.40
2011,05,29,06,13,6.40
2011,05,29,06,14,6.50
2011,05,29,06,15,6.50
2011,05,29,06,16,6.50
2011,05,29,06,17,6.40
2011,05,29,06,18,6.50
2011,05,29,06,19,6.40
2011,05,29,06,20,6.40
2011,05,29,06,21,6.40
2011,05,29,06,22,6.40
2011,05,29,06,23,6.40
2011,05,29,06,24,6.50
2011,05,29,06,25,6.50
2011,05,29,06,26,6.50
2011,05,29,06,27,6.50
2011,05,29,06,28,6.50
2011,05,29,06,29,6.60
2011,05,29,06,30,6.60
2011,05,29,06,31,6.60
2011,05,29,06,32,6.60
2011,05,29,06,33,6.60
2011,05,29,06,34,6.70
2011,05,29,06,35,6.70
2011,05,29,06,36,6.70
2011,05,29,06,37,6.70
2011,05,29,06,38,6.80
2011,05,29,06,39,6.80
2011,05,29,06,40,6.80
2011,05,29,06,41,6.80
2011,05,29,06,42,6.80
2011,05,29,06,43,6.90
2011,05,29,06,44,6.90
2011,05,29,06,45,6.90
2011,05,29,06,46,7.00
2011,05,29,06,47,7.00
2011,05,29,06,48,7.10
2011,05,29,06,49,7.10
2011,05,29,06,50,7.20
2011,05,29,06,51,7.20
2011,05,29,06,52,7.30
2011,05,29,06,53,7.30
2011,05,29,06,54,7.30
2011,05,29,06,55,7.40
2011,05,29,06,56,7.40
2011,05,29,06,57,7.50
2011,05,29,06,58,7.50
2011,05,29,06,59,7.60
2011,05,29,07,00,7.60
2011,05,29,07,01,7.60
2011,05,29,07,02,7.70
2011,05,29,07,03,7.70
2011,05,29,07,04,7.70
2011,05,29,07,05,7.70
2011,05,29,07,06,7.80
2011,05,29,07,07,7.80
2011,05,29,07,08,7.80
2011,05,29,07,09,7.80
2011,05,29,07,10,7.80
2011,05,29,07,11,7.80
2011,05,29,07,12,7.90
2011,05,29,07,13,7.90
2011,05,29,07,14,7.90
2011,05,29,07,15,7.90
2011,05,29,07,16,7.90
2011,05,29,07,17,7.90
2011,05,29,07,18,7.90
2011,05,29,07,19,8.00
2011,05,29,07,20,8.00
2011,05,29,07,21,8.00
2011,05,29,07,22,8.10
2011,05,29,07,23,8.10
2011,05,29,07,24,8.10
2011,05,29,07,25,8.10
2011,05,29,07,26,8.20
2011,05,29,07,27,8.20
2011,05,29,07,28,8.20
2011,05,29,07,29,8.20
2011,05,29,07,30,8.20
2011,05,29,07,31,8.20
2011,05,29,07,32,8.20
2011,05,29,07,33,8.20
2011,05,29,07,34,8.30
2011,05,29,07,35,8.30
2011,05,29,07,36,8.30
2011,05,29,07,37,8.30
2011,05,29,07,38,8.30
2011,05,29,07,39,8.30
2011,05,29,07,40,8.30
2011,05,29,07,41,8.30
2011,05,29,07,42,8.30
2011,05,29,07,43,8.40
2011,05,29,07,44,8.40
2011,05,29,07,45,8.40
2011,05,29,07,46,8.40
2011,05,29,07,47,8.40
2011,05,29,07,48,8.40
2011,05,29,07,49,8.40
2011,05,29,07,50,8.40
2011,05,29,07,51,8.40
2011,05,29,07,52,8.40
2011,05,29,07,53,8.40
2011,05,29,07,54,8.40
2011,05,29,07,55,8.40
2011,05,29,07,56,8.50
2011,05,29,07,57,8.50
2011,05,29,07,58,8.50
2011,05,29,07,59,8.50
2011,05,29,08,00,8.60
2011,05,29,08,01,8.60
2011,05,29,08,02,8.60
2011,05,29,08,03,8.60
2011,05,29,08,04,8.70
2011,05,29,08,05,8.70
2011,05,29,08,06,8.70
2011,05,29,08,07,8.70
2011,05,29,08,08,8.80
2011,05,29,08,09,8.80
2011,05,29,08,10,8.80
2011,05,29,08,11,8.90
2011,05,29,08,12,8.90
2011,05,29,08,13,8.90
2011,05,29,08,14,9.00
2011,05,29,08,15,9.00
2011,05,29,08,16,9.10
2011,05,29,08,17,9.10
2011,05,29,08,18,9.20
2011,05,29,08,19,9.20
2011,05,29,08,20,9.20
2011,05,29,08,21,9.30
2011,05,29,08,22,9.30
2011,05,29,08,23,9.40
2011,05,29,08,24,9.40
2011,05,29,08,25,9.50
2011,05,29,08,26,9.60
2011,05,29,08,27,9.60
2011,05,29,08,28,9.70
2011,05,29,08,29,9.70
2011,05,29,08,30,9.80
2011,05,29,08,31,9.80
2011,05,29,08,32,9.90
2011,05,29,08,33,10.00
2011,05,29,08,34,10.10
2011,05,29,08,35,10.20
2011,05,29,08,36,10.30
2011,05,29,08,37,10.30
2011,05,29,08,38,10.40
2011,05,29,08,39,10.40
2011,05,29,08,40,10.50
2011,05,29,08,41,10.60
2011,05,29,08,42,10.60
2011,05,29,08,43,10.70
2011,05,29,08,44,10.70
2011,05,29,08,45,10.80
2011,05,29,08,46,10.80
2011,05,29,08,47,10.90
2011,05,29,08,48,10.90
2011,05,29,08,49,11.00
2011,05,29,08,50,11.00
2011,05,29,08,51,11.10
2011,05,29,08,52,11.10
2011,05,29,08,53,11.10
2011,05,29,08,54,11.10
2011,05,29,08,55,11.10
2011,05,29,08,56,11.10
2011,05,29,08,57,11.20
2011,05,29,08,58,11.20
2011,05,29,08,59,11.20
2011,05,29,09,00,11.20
2011,05,29,09,01,11.30
2011,05,29,09,02,11.30
2011,05,29,09,03,11.30
2011,05,29,09,04,11.40
2011,05,29,09,05,11.40
2011,05,29,09,06,11.40
2011,05,29,09,07,11.50
2011,05,29,09,08,11.60
2011,05,29,09,09,11.60
2011,05,29,09,10,11.70
2011,05,29,09,11,11.80
2011,05,29,09,12,11.90
2011,05,29,09,13,11.90
2011,05,29,09,14,12.00
2011,05,29,09,15,12.10
2011,05,29,09,16,12.20
2011,05,29,09,17,12.20
2011,05,29,09,18,12.30
2011,05,29,09,19,12.40
2011,05,29,09,20,12.40
2011,05,29,09,21,12.40
2011,05,29,09,22,12.50
2011,05,29,09,23,12.50
2011,05,29,09,24,12.50
2011,05,29,09,25,12.60
2011,05,29,09,26,12.60
2011,05,29,09,27,12.60
2011,05,29,09,28,12.60
2011,05,29,09,29,12.70
2011,05,29,09,30,12.70
2011,05,29,09,31,12.80
2011,05,29,09,32,12.80
2011,05,29,09,33,12.80
2011,05,29,09,34,12.90
2011,05,29,09,35,12.90
2011,05,29,09,36,13.00
2011,05,29,09,37,13.10
2011,05,29,09,38,13.20
2011,05,29,09,39,13.20
2011,05,29,09,40,13.30
2011,05,29,09,41,13.30
2011,05,29,09,42,13.40
2011,05,29,09,43,13.50
2011,05,29,09,44,13.60
2011,05,29,09,45,13.60
2011,05,29,09,46,13.70
2011,05,29,09,47,13.80
2011,05,29,09,48,13.90
2011,05,29,09,49,13.90
2011,05,29,09,50,14.00
2011,05,29,09,51,14.00
2011,05,29,09,52,14.00
2011,05,29,09,53,14.00
2011,05,29,09,54,14.00
2011,05,29,09,55,14.00
2011,05,29,09,56,14.00
2011,05,29,09,57,14.10
2011,05,29,09,58,14.10
2011,05,29,09,59,14.20
2011,05,29,10,00,14.20
2011,05,29,10,01,14.30
2011,05,29,10,02,14.30
2011,05,29,10,03,14.40
2011,05,29,10,04,14.40
2011,05,29,10,05,14.40
2011,05,29,10,06,14.40
2011,05,29,10,07,14.40
2011,05,29,10,08,14.40
2011,05,29,10,09,14.40
2011,05,29,10,10,14.30
2011,05,29,10,11,14.30
2011,05,29,10,12,14.30
2011,05,29,10,13,14.20
2011,05,29,10,14,14.20
2011,05,29,10,15,14.20
2011,05,29,10,16,14.20
2011,05,29,10,17,14.20
2011,05,29,10,18,14.30
2011,05,29,10,19,14.30
2011,05,29,10,20,14.30
2011,05,29,10,21,14.30
2011,05,29,10,22,14.40
2011,05,29,10,23,14.40
2011,05,29,10,24,14.40
2011,05,29,10,25,14.40
2011,05,29,10,26,14.50
2011,05,29,10,27,14.50
2011,05,29,10,28,14.50
2011,05,29,10,29,14.50
2011,05,29,10,30,14.60
2011,05,29,10,31,14.60
2011,05,29,10,32,14.70
2011,05,29,10,33,14.70
2011,05,29,10,34,14.70
2011,05,29,10,35,14.80
2011,05,29,10,36,14.90
2011,05,29,10,37,14.90
2011,05,29,10,38,15.00
2011,05,29,10,39,15.10
2011,05,29,10,40,15.20
2011,05,29,10,41,15.20
2011,05,29,10,42,15.20
2011,05,29,10,43,15.30
2011,05,29,10,44,15.30
2011,05,29,10,45,15.30
2011,05,29,10,46,15.30
2011,05,29,10,47,15.30
2011,05,29,10,48,15.30
2011,05,29,10,49,15.30
2011,05,29,10,50,15.30
2011,05,29,10,51,15.30
2011,05,29,10,52,15.30
2011,05,29,10,53,15.30
2011,05,29,10,54,15.30
2011,05,29,10,55,15.30
2011,05,29,10,56,15.30
2011,05,29,10,57,15.30
2011,05,29,10,58,15.40
2011,05,29,10,59,15.40
2011,05,29,11,00,15.40
2011,05,29,11,01,15.50
2011,05,29,11,02,15.60
2011,05,29,11,03,15.60
2011,05,29,11,04,15.60
2011,05,29,11,05,15.60
2011,05,29,11,06,15.60
2011,05,29,11,07,15.60
2011,05,29,11,08,15.60
2011,05,29,11,09,15.60
2011,05,29,11,10,15.60
2011,05,29,11,11,15.60
2011,05,29,11,12,15.60
2011,05,29,11,13,15.60
2011,05,29,11,14,15.60
2011,05,29,11,15,15.60
2011,05,29,11,16,15.60
2011,05,29,11,17,15.50
2011,05,29,11,18,15.50
2011,05,29,11,19,15.50
2011,05,29,11,20,15.50
2011,05,29,11,21,15.50
2011,05,29,11,22,15.50
2011,05,29,11,23,15.50
2011,05,29,11,24,15.50
2011,05,29,11,25,15.50
2011,05,29,11,26,15.40
2011,05,29,11,27,15.40
2011,05,29,11,28,15.40
2011,05,29,11,29,15.40
2011,05,29,11,30,15.40
2011,05,29,11,31,15.40
2011,05,29,11,32,15.40
2011,05,29,11,33,15.40
2011,05,29,11,34,15.40
2011,05,29,11,35,15.40
2011,05,29,11,36,15.40
2011,05,29,11,37,15.40
2011,05,29,11,38,15.40
2011,05,29,11,39,15.40
2011,05,29,11,40,15.40
2011,05,29,11,41,15.40
2011,05,29,11,42,15.40
2011,05,29,11,43,15.50
2011,05,29,11,44,15.50
2011,05,29,11,45,15.50
2011,05,29,11,46,15.60
2011,05,29,11,47,15.50
2011,05,29,11,48,15.50
2011,05,29,11,49,15.50
2011,05,29,11,50,15.50
2011,05,29,11,51,15.50
2011,05,29,11,52,15.50
2011,05,29,11,53,15.40
2011,05,29,11,54,15.40
2011,05,29,11,55,15.40
2011,05,29,11,56,15.40
2011,05,29,11,57,15.50
2011,05,29,11,58,15.50
2011,05,29,11,59,15.60
2011,05,29,12,00,15.60
2011,05,29,12,01,15.60
2011,05,29,12,02,15.60
2011,05,29,12,03,15.60
2011,05,29,12,04,15.60
2011,05,29,12,05,15.60
2011,05,29,12,06,15.60
2011,05,29,12,07,15.50
2011,05,29,12,08,15.50
2011,05,29,12,09,15.50
2011,05,29,12,10,15.50
2011,05,29,12,11,15.50
2011,05,29,12,12,15.50
2011,05,29,12,13,15.50
2011,05,29,12,14,15.40
2011,05,29,12,15,15.40
2011,05,29,12,16,15.40
2011,05,29,12,17,15.50
2011,05,29,12,18,15.50
2011,05,29,12,19,15.40
2011,05,29,12,20,15.50
2011,05,29,12,21,15.50
2011,05,29,12,22,15.50
2011,05,29,12,23,15.50
2011,05,29,12,24,15.40
2011,05,29,12,25,15.40
2011,05,29,12,26,15.40
2011,05,29,12,27,15.40
2011,05,29,12,28,15.40
2011,05,29,12,29,15.40
2011,05,29,12,30,15.40
2011,05,29,12,31,15.40
2011,05,29,12,32,15.40
2011,05,29,12,33,15.30
2011,05,29,12,34,15.20
2011,05,29,12,35,15.20
2011,05,29,12,36,15.20
2011,05,29,12,37,15.30
2011,05,29,12,38,15.30
2011,05,29,12,39,15.40
2011,05,29,12,40,15.40
2011,05,29,12,41,15.40
2011,05,29,12,42,15.40
2011,05,29,12,43,15.30
2011,05,29,12,44,15.30
2011,05,29,12,45,15.40
2011,05,29,12,46,15.40
2011,05,29,12,47,15.40
2011,05,29,12,48,15.40
2011,05,29,12,49,15.50
2011,05,29,12,50,15.60
2011,05,29,12,51,15.60
2011,05,29,12,52,15.70
2011,05,29,12,53,15.70
2011,05,29,12,54,15.80
2011,05,29,12,55,15.80
2011,05,29,12,56,15.80
2011,05,29,12,57,15.80
2011,05,29,12,58,15.70
2011,05,29,12,59,15.70
2011,05,29,13,00,15.60
2011,05,29,13,01,15.60
2011,05,29,13,02,15.50
2011,05,29,13,03,15.50
2011,05,29,13,04,15.40
2011,05,29,13,05,15.40
2011,05,29,13,06,15.40
2011,05,29,13,07,15.40
2011,05,29,13,08,15.40
2011,05,29,13,09,15.40
2011,05,29,13,10,15.50
2011,05,29,13,11,15.50
2011,05,29,13,12,15.50
2011,05,29,13,13,15.50
2011,05,29,13,14,15.50
2011,05,29,13,15,15.50
2011,05,29,13,16,15.40
2011,05,29,13,17,15.40
2011,05,29,13,18,15.40
2011,05,29,13,19,15.40
2011,05,29,13,20,15.30
2011,05,29,13,21,15.30
2011,05,29,13,22,15.30
2011,05,29,13,23,15.40
2011,05,29,13,24,15.50
2011,05,29,13,25,15.60
2011,05,29,13,26,15.60
2011,05,29,13,27,15.70
2011,05,29,13,28,15.80
2011,05,29,13,29,15.80
2011,05,29,13,30,15.90
2011,05,29,13,31,15.90
2011,05,29,13,32,15.90
2011,05,29,13,33,15.90
2011,05,29,13,34,16.00
2011,05,29,13,35,15.90
2011,05,29,13,36,15.90
2011,05,29,13,37,15.80
2011,05,29,13,38,15.80
2011,05,29,13,39,15.80
2011,05,29,13,40,15.80
2011,05,29,13,41,15.80
2011,05,29,13,42,15.80
2011,05,29,13,43,15.80
2011,05,29,13,44,15.80
2011,05,29,13,45,15.80
2011,05,29,13,46,15.90
2011,05,29,13,47,15.90
2011,05,29,13,48,16.00
2011,05,29,13,49,16.10
2011,05,29,13,50,16.10
2011,05,29,13,51,16.10
2011,05,29,13,52,16.10
2011,05,29,13,53,16.10
2011,05,29,13,54,16.10
2011,05,29,13,55,16.10
2011,05,29,13,56,16.10
2011,05,29,13,57,16.10
2011,05,29,13,58,16.10
2011,05,29,13,59,16.10
2011,05,29,14,00,16.10
2011,05,29,14,01,16.10
2011,05,29,14,02,16.10
2011,05,29,14,03,16.10
2011,05,29,14,04,16.10
2011,05,29,14,05,16.10
2011,05,29,14,06,16.20
2011,05,29,14,07,16.20
2011,05,29,14,08,16.20
2011,05,29,14,09,16.20
2011,05,29,14,10,16.20
2011,05,29,14,11,16.20
2011,05,29,14,12,16.20
2011,05,29,14,13,16.20
2011,05,29,14,14,16.20
2011,05,29,14,15,16.20
2011,05,29,14,16,16.10
2011,05,29,14,17,16.10
2011,05,29,14,18,16.20
2011,05,29,14,19,16.20
2011,05,29,14,20,16.20
2011,05,29,14,21,16.20
2011,05,29,14,22,16.20
2011,05,29,14,23,16.20
2011,05,29,14,24,16.20
2011,05,29,14,25,16.20
2011,05,29,14,26,16.20
2011,05,29,14,27,16.30
2011,05,29,14,28,16.30
2011,05,29,14,29,16.30
2011,05,29,14,30,16.40
2011,05,29,14,31,16.40
2011,05,29,14,32,16.40
2011,05,29,14,33,16.40
2011,05,29,14,34,16.40
2011,05,29,14,35,16.40
2011,05,29,14,36,16.50
2011,05,29,14,37,16.40
2011,05,29,14,38,16.40
2011,05,29,14,39,16.50
2011,05,29,14,40,16.50
2011,05,29,14,41,16.50
2011,05,29,14,42,16.50
2011,05,29,14,43,16.50
2011,05,29,14,44,16.60
2011,05,29,14,45,16.60
2011,05,29,14,46,16.60
2011,05,29,14,47,16.60
2011,05,29,14,48,16.60
2011,05,29,14,49,16.60
2011,05,29,14,50,16.50
2011,05,29,14,51,16.50
2011,05,29,14,52,16.40
2011,05,29,14,53,16.40
2011,05,29,14,54,16.40
2011,05,29,14,55,16.30
2011,05,29,14,56,16.30
2011,05,29,14,57,16.30
2011,05,29,14,58,16.30
2011,05,29,14,59,16.30
2011,05,29,15,00,16.30
2011,05,29,15,01,16.40
2011,05,29,15,02,16.40
2011,05,29,15,03,16.30
2011,05,29,15,04,16.30
2011,05,29,15,05,16.30
2011,05,29,15,06,16.30
2011,05,29,15,07,16.30
2011,05,29,15,08,16.30
2011,05,29,15,09,16.20
2011,05,29,15,10,16.20
2011,05,29,15,11,16.20
2011,05,29,15,12,16.20
2011,05,29,15,13,16.20
2011,05,29,15,14,16.20
2011,05,29,15,15,16.20
2011,05,29,15,16,16.30
2011,05,29,15,17,16.30
2011,05,29,15,18,16.30
2011,05,29,15,19,16.30
2011,05,29,15,20,16.30
2011,05,29,15,21,16.30
2011,05,29,15,22,16.30
2011,05,29,15,23,16.30
2011,05,29,15,24,16.40
2011,05,29,15,25,16.40
2011,05,29,15,26,16.40
2011,05,29,15,27,16.50
2011,05,29,15,28,16.50
2011,05,29,15,29,16.60
2011,05,29,15,30,16.60
2011,05,29,15,31,16.60
2011,05,29,15,32,16.60
2011,05,29,15,33,16.70
2011,05,29,15,34,16.70
2011,05,29,15,35,16.80
2011,05,29,15,36,16.80
2011,05,29,15,37,16.80
2011,05,29,15,38,16.80
2011,05,29,15,39,16.80
2011,05,29,15,40,16.90
2011,05,29,15,41,16.90
2011,05,29,15,42,16.80
2011,05,29,15,43,16.80
2011,05,29,15,44,16.80
2011,05,29,15,45,16.70
2011,05,29,15,46,16.70
2011,05,29,15,47,16.70
2011,05,29,15,48,16.70
2011,05,29,15,49,16.70
2011,05,29,15,50,16.70
2011,05,29,15,51,16.70
2011,05,29,15,52,16.70
2011,05,29,15,53,16.70
2011,05,29,15,54,16.80
2011,05,29,15,55,16.70
2011,05,29,15,56,16.70
2011,05,29,15,57,16.70
2011,05,29,15,58,16.80
2011,05,29,15,59,16.80
2011,05,29,16,00,16.80
2011,05,29,16,01,16.90
2011,05,29,16,02,16.80
2011,05,29,16,03,16.80
2011,05,29,16,04,16.80
2011,05,29,16,05,16.80
2011,05,29,16,06,16.70
2011,05,29,16,07,16.70
2011,05,29,16,08,16.70
2011,05,29,16,09,16.60
2011,05,29,16,10,16.60
2011,05,29,16,11,16.70
2011,05,29,16,12,16.70
2011,05,29,16,13,16.70
2011,05,29,16,14,16.80
2011,05,29,16,15,16.80
2011,05,29,16,16,16.70
2011,05,29,16,17,16.70
2011,05,29,16,18,16.70
2011,05,29,16,19,16.60
2011,05,29,16,20,16.60
2011,05,29,16,21,16.60
2011,05,29,16,22,16.60
2011,05,29,16,23,16.60
2011,05,29,16,24,16.60
2011,05,29,16,25,16.60
2011,05,29,16,26,16.60
2011,05,29,16,27,16.70
2011,05,29,16,28,16.70
2011,05,29,16,29,16.70
2011,05,29,16,30,16.80
2011,05,29,16,31,16.80
2011,05,29,16,32,16.80
2011,05,29,16,33,16.80
2011,05,29,16,34,16.80
2011,05,29,16,35,16.80
2011,05,29,16,36,16.80
2011,05,29,16,37,16.90
2011,05,29,16,38,16.90
2011,05,29,16,39,17.00
2011,05,29,16,40,17.00
2011,05,29,16,41,17.10
2011,05,29,16,42,17.10
2011,05,29,16,43,17.10
2011,05,29,16,44,17.10
2011,05,29,16,45,17.10
2011,05,29,16,46,17.10
2011,05,29,16,47,17.10
2011,05,29,16,48,17.10
2011,05,29,16,49,17.20
2011,05,29,16,50,17.20
2011,05,29,16,51,17.20
2011,05,29,16,52,17.20
2011,05,29,16,53,17.20
2011,05,29,16,54,17.30
2011,05,29,16,55,17.30
2011,05,29,16,56,17.30
2011,05,29,16,57,17.40
2011,05,29,16,58,17.40
2011,05,29,16,59,17.50
2011,05,29,17,00,17.50
2011,05,29,17,01,17.60
2011,05,29,17,02,17.60
2011,05,29,17,03,17.60
2011,05,29,17,04,17.60
2011,05,29,17,05,17.60
2011,05,29,17,06,17.60
2011,05,29,17,07,17.60
2011,05,29,17,08,17.60
2011,05,29,17,09,17.70
2011,05,29,17,10,17.70
2011,05,29,17,11,17.70
2011,05,29,17,12,17.70
2011,05,29,17,13,17.70
2011,05,29,17,14,17.70
2011,05,29,17,15,17.70
2011,05,29,17,16,17.60
2011,05,29,17,17,17.60
2011,05,29,17,18,17.50
2011,05,29,17,19,17.50
2011,05,29,17,20,17.50
2011,05,29,17,21,17.40
2011,05,29,17,22,17.30
2011,05,29,17,23,17.30
2011,05,29,17,24,17.20
2011,05,29,17,25,17.20
2011,05,29,17,26,17.10
2011,05,29,17,27,17.10
2011,05,29,17,28,17.10
2011,05,29,17,29,17.10
2011,05,29,17,30,17.10
2011,05,29,17,31,17.10
2011,05,29,17,32,17.00
2011,05,29,17,33,17.00
2011,05,29,17,34,16.90
2011,05,29,17,35,16.90
2011,05,29,17,36,16.90
2011,05,29,17,37,16.90
2011,05,29,17,38,16.90
2011,05,29,17,39,17.00
2011,05,29,17,40,17.00
2011,05,29,17,41,17.00